This is the latest recevied weather packets stored in our database for station/object IK6IHU-3. If no packets are shown the sender has not sent any weather packets the latest 1 day(s).
| Time | Temp. | Humidity | Pressure | Rain* | Wind** | Luminosity | Snow |
|---|---|---|---|---|---|---|---|
| 1778030604 | 16.11° C | 70% | 1012.1 hPa | 0 mm | 0.89 m/s, 295° | 0 W/m² | - |
| 1778030544 | 16.11° C | 70% | 1012.3 hPa | 0 mm | 0.89 m/s, 296° | 0 W/m² | - |
| 1778030484 | 16.11° C | 70% | 1012.1 hPa | 0 mm | 1.34 m/s, 295° | 0 W/m² | - |
| 1778030424 | 16.11° C | 70% | 1012.2 hPa | 0 mm | 0.89 m/s, 292° | 0 W/m² | - |
| 1778030364 | 16.11° C | 70% | 1012.2 hPa | 0 mm | 0.89 m/s, 292° | 0 W/m² | - |
| 1778030304 | 15.56° C | 70% | 1012.3 hPa | 0 mm | 0.89 m/s, 292° | 0 W/m² | - |
| 1778030244 | 15.56° C | 70% | 1012.3 hPa | 0 mm | 0.89 m/s, 292° | 0 W/m² | - |
| 1778030184 | 15.56° C | 70% | 1012.4 hPa | 0 mm | 0.89 m/s, 292° | 0 W/m² | - |
| 1778030128 | 15.56° C | 70% | 1012.2 hPa | 0 mm | 0.89 m/s, 292° | 0 W/m² | - |
| 1778030064 | 15.56° C | 70% | 1012.2 hPa | 0 mm | 0 m/s | 0 W/m² | - |
| 1778030004 | 15.56° C | 70% | 1012.1 hPa | 0 mm | 0 m/s | 0 W/m² | - |
| 1778029944 | 15.56° C | 70% | 1012.4 hPa | 0 mm | 0 m/s | 0 W/m² | - |
| 1778029884 | 15.56° C | 70% | 1012.3 hPa | 0 mm | 0 m/s | 0 W/m² | - |
| 1778029824 | 15.56° C | 70% | 1012.3 hPa | 0 mm | 0 m/s | 0 W/m² | - |
| 1778029764 | 15.56° C | 70% | 1012.3 hPa | 0 mm | 0.45 m/s, 305° | 0 W/m² | - |
| 1778029704 | 15.56° C | 70% | 1012.3 hPa | 0 mm | 0.45 m/s, 307° | 0 W/m² | - |
| 1778029644 | 15.56° C | 70% | 1012.1 hPa | 0 mm | 0 m/s | 0 W/m² | - |
| 1778029584 | 15.56° C | 70% | 1012.4 hPa | 0 mm | 0.45 m/s, 311° | 0 W/m² | - |
| 1778029524 | 15.56° C | 70% | 1012.2 hPa | 0 mm | 0.89 m/s, 313° | 0 W/m² | - |
| 1778029464 | 15.56° C | 71% | 1012.3 hPa | 0 mm | 0.89 m/s, 313° | 0 W/m² | - |
| 1778029404 | 15.56° C | 71% | 1012.2 hPa | 0 mm | 0.89 m/s, 312° | 0 W/m² | - |
| 1778029344 | 15.56° C | 71% | 1012.3 hPa | 0 mm | 0.89 m/s, 311° | 0 W/m² | - |
| 1778029284 | 15.56° C | 71% | 1012.3 hPa | 0 mm | 1.34 m/s, 310° | 0 W/m² | - |
| 1778029224 | 15.56° C | 71% | 1012.4 hPa | 0 mm | 1.34 m/s, 309° | 0 W/m² | - |
| 1778029165 | 15.56° C | 72% | 1012.3 hPa | 0 mm | 1.34 m/s, 307° | 0 W/m² | - |
* Rain latest hour (hover to see other rain measurements)
** Current wind speed in m/s (hover to see current wind gust speed)